NKS784 MDPC-KFLL

Flight info

Callsign NKS784
Flight time N/A
Altitude 34000
Route MALVN2T MALVN DCT RUMFO DCT ZQA OLAHS3
Aircraft A321/M-SDE3FGHIRWY/LB1

Departure

Time N/A
Airport Punta Cana International Airport (MDPC)

Arrival

Time 2026-05-03 21:27
Airport Fort Lauderdale Hollywood International Airport (KFLL)
Time Latitude Longitude Altitude Speed Heading
2026-05-03 20:15 22.80445 -74.68691 34057 ft 431 kts 304°
2026-05-03 20:15 22.84078 -74.73869 34062 ft 431 kts 304°
2026-05-03 20:16 22.87705 -74.79039 34050 ft 431 kts 304°
2026-05-03 20:16 22.91342 -74.84214 34054 ft 431 kts 304°
2026-05-03 20:17 22.94972 -74.89398 34054 ft 431 kts 304°
2026-05-03 20:17 22.98594 -74.94578 34050 ft 431 kts 304°
2026-05-03 20:18 23.02223 -74.99766 34045 ft 431 kts 304°
2026-05-03 20:18 23.05837 -75.04944 34072 ft 431 kts 303°
2026-05-03 20:19 23.09487 -75.10048 34067 ft 432 kts 308°
2026-05-03 20:19 23.13538 -75.14864 34062 ft 431 kts 308°
2026-05-03 20:20 23.17577 -75.19657 34053 ft 429 kts 308°
2026-05-03 20:20 23.21601 -75.24437 34052 ft 429 kts 308°
2026-05-03 20:21 23.25612 -75.29210 34054 ft 428 kts 308°
2026-05-03 20:21 23.29637 -75.34004 34053 ft 429 kts 308°
2026-05-03 20:22 23.33654 -75.38794 34052 ft 429 kts 308°
2026-05-03 20:22 23.37676 -75.43595 34056 ft 429 kts 308°
2026-05-03 20:23 23.41692 -75.48394 34067 ft 428 kts 307°
2026-05-03 20:23 23.45697 -75.53190 34059 ft 428 kts 307°
2026-05-03 20:24 23.49667 -75.57936 34057 ft 427 kts 307°
2026-05-03 20:24 23.53664 -75.62729 34054 ft 427 kts 307°
2026-05-03 20:25 23.57659 -75.67522 34053 ft 427 kts 307°
2026-05-03 20:25 23.61660 -75.72317 34052 ft 427 kts 307°
2026-05-03 20:26 23.65656 -75.77117 34056 ft 427 kts 307°
2026-05-03 20:26 23.69603 -75.81879 34054 ft 427 kts 307°
2026-05-03 20:27 23.73596 -75.86696 34072 ft 428 kts 307°
2026-05-03 20:27 23.77598 -75.91504 34064 ft 428 kts 307°
2026-05-03 20:28 23.81593 -75.96323 34059 ft 427 kts 307°
2026-05-03 20:28 23.85572 -76.01154 34051 ft 428 kts 307°
2026-05-03 20:29 23.89550 -76.05956 34049 ft 427 kts 307°
2026-05-03 20:29 23.93545 -76.10786 34046 ft 427 kts 307°
2026-05-03 20:30 23.97524 -76.15604 34050 ft 427 kts 307°
2026-05-03 20:30 24.01487 -76.20413 34052 ft 426 kts 307°
2026-05-03 20:31 24.05456 -76.25230 34049 ft 426 kts 307°
2026-05-03 20:31 24.09400 -76.30022 34046 ft 425 kts 307°
2026-05-03 20:32 24.13329 -76.34795 34041 ft 425 kts 307°
2026-05-03 20:32 24.17273 -76.39607 34046 ft 424 kts 307°
2026-05-03 20:33 24.21220 -76.44417 34046 ft 424 kts 307°
2026-05-03 20:33 24.25168 -76.49233 34047 ft 425 kts 307°
2026-05-03 20:34 24.29102 -76.54041 34054 ft 425 kts 307°
2026-05-03 20:34 24.33048 -76.58861 34050 ft 424 kts 307°
2026-05-03 20:35 24.36981 -76.63681 34047 ft 424 kts 307°
2026-05-03 20:35 24.40907 -76.68496 34047 ft 423 kts 307°
2026-05-03 20:36 24.44836 -76.73319 34059 ft 424 kts 306°
2026-05-03 20:36 24.48771 -76.78143 34053 ft 424 kts 307°
2026-05-03 20:37 24.52697 -76.82952 34047 ft 424 kts 306°
2026-05-03 20:37 24.56625 -76.87783 34060 ft 424 kts 306°
2026-05-03 20:38 24.60533 -76.92610 34060 ft 423 kts 306°
2026-05-03 20:38 24.64451 -76.97428 34047 ft 423 kts 306°
2026-05-03 20:39 24.68361 -77.02243 34046 ft 422 kts 306°
2026-05-03 20:39 24.72226 -77.07019 34051 ft 421 kts 306°
2026-05-03 20:40 24.76120 -77.11838 34050 ft 421 kts 306°
2026-05-03 20:40 24.80018 -77.16663 34064 ft 421 kts 306°
2026-05-03 20:41 24.83913 -77.21488 34061 ft 421 kts 306°
2026-05-03 20:41 24.87803 -77.26306 34066 ft 421 kts 306°
2026-05-03 20:42 24.91670 -77.31106 34065 ft 420 kts 305°
2026-05-03 20:42 24.95541 -77.35925 34060 ft 419 kts 305°
2026-05-03 20:43 24.99411 -77.40747 34070 ft 420 kts 305°
2026-05-03 20:43 25.02895 -77.45778 34057 ft 410 kts 292°
2026-05-03 20:44 25.05137 -77.51507 34048 ft 406 kts 288°
2026-05-03 20:44 25.07283 -77.57266 34045 ft 408 kts 288°
2026-05-03 20:45 25.09448 -77.63059 34058 ft 409 kts 288°
2026-05-03 20:45 25.11616 -77.68864 34058 ft 409 kts 288°
2026-05-03 20:46 25.13785 -77.74684 34077 ft 410 kts 288°
2026-05-03 20:46 25.15580 -77.79495 34064 ft 408 kts 288°
2026-05-03 20:47 25.17741 -77.85298 34052 ft 408 kts 288°
2026-05-03 20:47 25.19899 -77.91075 34050 ft 409 kts 288°
2026-05-03 20:48 25.22056 -77.96889 34052 ft 409 kts 288°
2026-05-03 20:48 25.24192 -78.02667 34049 ft 409 kts 288°
2026-05-03 20:49 25.26349 -78.08497 34048 ft 410 kts 288°
2026-05-03 20:49 25.28505 -78.14324 34049 ft 410 kts 288°
2026-05-03 20:50 25.30655 -78.20142 34051 ft 410 kts 288°
2026-05-03 20:50 25.31779 -78.23041 33522 ft 413 kts 289°
2026-05-03 20:50 25.32950 -78.25953 32512 ft 416 kts 289°
2026-05-03 20:50 25.34145 -78.28870 31757 ft 418 kts 289°
2026-05-03 20:51 25.35351 -78.31810 31110 ft 419 kts 289°
2026-05-03 20:51 25.36543 -78.34730 30648 ft 414 kts 289°
2026-05-03 20:51 25.37714 -78.37626 30150 ft 411 kts 288°
2026-05-03 20:51 25.38869 -78.40514 29590 ft 407 kts 288°
2026-05-03 20:52 25.40000 -78.43361 29063 ft 403 kts 288°
2026-05-03 20:52 25.41121 -78.46188 28496 ft 400 kts 288°
2026-05-03 20:52 25.42224 -78.49001 27948 ft 396 kts 288°
2026-05-03 20:52 25.43287 -78.51761 27407 ft 393 kts 288°
2026-05-03 20:53 25.44349 -78.54544 26867 ft 391 kts 288°
2026-05-03 20:53 25.45397 -78.57305 26332 ft 388 kts 288°
2026-05-03 20:53 25.46443 -78.60053 25808 ft 386 kts 288°
2026-05-03 20:53 25.47485 -78.62780 25287 ft 384 kts 288°
2026-05-03 20:54 25.48528 -78.65496 24782 ft 383 kts 288°
2026-05-03 20:54 25.50605 -78.70904 23795 ft 380 kts 289°
2026-05-03 20:54 25.51631 -78.73591 23328 ft 378 kts 289°
2026-05-03 20:55 25.52639 -78.76226 23184 ft 366 kts 288°
2026-05-03 20:55 25.53617 -78.78779 22896 ft 359 kts 288°
2026-05-03 20:55 25.54585 -78.81312 22442 ft 356 kts 288°
2026-05-03 20:55 25.55545 -78.83836 21944 ft 355 kts 288°
2026-05-03 20:56 25.56498 -78.86350 21454 ft 353 kts 289°
2026-05-03 20:56 25.57440 -78.88830 20912 ft 349 kts 289°
2026-05-03 20:56 25.58380 -78.91299 20206 ft 347 kts 289°
2026-05-03 20:56 25.59314 -78.93749 19623 ft 343 kts 289°
2026-05-03 20:57 25.60237 -78.96175 19121 ft 341 kts 289°
2026-05-03 20:57 25.61155 -78.98585 18630 ft 339 kts 289°
2026-05-03 20:57 25.62070 -79.00989 18104 ft 338 kts 289°
2026-05-03 20:57 25.62972 -79.03361 17566 ft 335 kts 289°
2026-05-03 20:58 25.63875 -79.05745 17073 ft 335 kts 289°
2026-05-03 20:58 25.64768 -79.08121 16583 ft 333 kts 289°
2026-05-03 20:58 25.65655 -79.10487 16102 ft 331 kts 289°
2026-05-03 20:58 25.66538 -79.12843 15616 ft 330 kts 289°
2026-05-03 20:59 25.67416 -79.15192 15139 ft 329 kts 289°
2026-05-03 20:59 25.68290 -79.17531 14711 ft 327 kts 289°
2026-05-03 20:59 25.69160 -79.19855 14243 ft 326 kts 290°
2026-05-03 20:59 25.70025 -79.22163 13769 ft 325 kts 290°
2026-05-03 21:00 25.70883 -79.24456 13391 ft 320 kts 290°
2026-05-03 21:00 25.71445 -79.25961 13097 ft 319 kts 290°
2026-05-03 21:00 25.72561 -79.28940 12509 ft 316 kts 290°
2026-05-03 21:00 25.73396 -79.31174 11925 ft 311 kts 290°
2026-05-03 21:01 25.74210 -79.33377 11359 ft 306 kts 290°
2026-05-03 21:01 25.75007 -79.35551 10912 ft 303 kts 290°
2026-05-03 21:01 25.75795 -79.37704 10472 ft 300 kts 290°
2026-05-03 21:01 25.76578 -79.39841 10091 ft 296 kts 290°
2026-05-03 21:02 25.77331 -79.41887 9853 ft 278 kts 290°
2026-05-03 21:02 25.78052 -79.43852 9727 ft 275 kts 290°
2026-05-03 21:02 25.78768 -79.45814 9565 ft 274 kts 289°
2026-05-03 21:02 25.79479 -79.47768 9225 ft 272 kts 289°
2026-05-03 21:03 25.80189 -79.49712 8861 ft 271 kts 290°
2026-05-03 21:03 25.80890 -79.51627 8490 ft 270 kts 290°
2026-05-03 21:03 25.81595 -79.53560 8119 ft 270 kts 289°
2026-05-03 21:03 25.82298 -79.55488 7748 ft 269 kts 289°
2026-05-03 21:04 25.82997 -79.57405 7379 ft 269 kts 289°
2026-05-03 21:04 25.83700 -79.59333 7008 ft 269 kts 289°
2026-05-03 21:04 25.84407 -79.61256 6638 ft 269 kts 290°
2026-05-03 21:04 25.85126 -79.63172 6255 ft 269 kts 290°
2026-05-03 21:05 25.85856 -79.65078 5993 ft 265 kts 292°
2026-05-03 21:05 25.86620 -79.66933 5993 ft 267 kts 292°
2026-05-03 21:05 25.87392 -79.68804 5993 ft 267 kts 292°
2026-05-03 21:05 25.88185 -79.70632 5997 ft 268 kts 294°
2026-05-03 21:06 25.89030 -79.72506 5998 ft 268 kts 294°
2026-05-03 21:06 25.89866 -79.74355 6002 ft 267 kts 294°
2026-05-03 21:06 25.90662 -79.76175 5998 ft 265 kts 293°
2026-05-03 21:06 25.91462 -79.78041 5998 ft 264 kts 293°
2026-05-03 21:07 25.92246 -79.79882 6001 ft 264 kts 293°
2026-05-03 21:07 25.93016 -79.81698 5998 ft 263 kts 292°
2026-05-03 21:07 25.93792 -79.83532 5998 ft 263 kts 292°
2026-05-03 21:07 25.94572 -79.85371 5998 ft 263 kts 292°
2026-05-03 21:08 25.95353 -79.87210 5999 ft 263 kts 292°
2026-05-03 21:08 25.96132 -79.89043 5999 ft 263 kts 293°
2026-05-03 21:08 25.96914 -79.90882 6001 ft 264 kts 292°
2026-05-03 21:08 25.97700 -79.92727 6001 ft 264 kts 293°
2026-05-03 21:09 25.98499 -79.94563 6000 ft 264 kts 297°
2026-05-03 21:09 25.99568 -79.96231 6000 ft 267 kts 309°
2026-05-03 21:09 26.00802 -79.97740 6003 ft 268 kts 309°
2026-05-03 21:09 26.02048 -79.99276 6008 ft 267 kts 309°
2026-05-03 21:10 26.03276 -80.00792 6000 ft 257 kts 308°
2026-05-03 21:10 26.04434 -80.02218 6002 ft 240 kts 308°
2026-05-03 21:10 26.05500 -80.03529 6020 ft 223 kts 308°
2026-05-03 21:10 26.06551 -80.04828 6014 ft 222 kts 308°
2026-05-03 21:11 26.07577 -80.06102 6012 ft 222 kts 308°
2026-05-03 21:11 26.08608 -80.07383 6009 ft 222 kts 308°
2026-05-03 21:11 26.09643 -80.08669 6016 ft 223 kts 307°
2026-05-03 21:11 26.10677 -80.09953 6014 ft 223 kts 308°
2026-05-03 21:12 26.11715 -80.11240 6013 ft 223 kts 308°
2026-05-03 21:12 26.12751 -80.12521 6011 ft 221 kts 308°
2026-05-03 21:12 26.13765 -80.13800 6001 ft 220 kts 304°
2026-05-03 21:12 26.14536 -80.15255 6011 ft 217 kts 290°
2026-05-03 21:13 26.14955 -80.16835 5953 ft 215 kts 277°
2026-05-03 21:13 26.15038 -80.18499 5856 ft 215 kts 269°
2026-05-03 21:13 26.15041 -80.20160 5765 ft 215 kts 269°
2026-05-03 21:13 26.15046 -80.21813 5677 ft 215 kts 270°
2026-05-03 21:14 26.15054 -80.23475 5592 ft 213 kts 269°
2026-05-03 21:14 26.15061 -80.25113 5502 ft 211 kts 269°
2026-05-03 21:14 26.15076 -80.26721 5415 ft 202 kts 269°
2026-05-03 21:14 26.15096 -80.28216 5276 ft 184 kts 269°
2026-05-03 21:15 26.15106 -80.29617 5057 ft 180 kts 269°
2026-05-03 21:15 26.15104 -80.31007 5001 ft 181 kts 269°
2026-05-03 21:15 26.15093 -80.32413 5004 ft 182 kts 268°
2026-05-03 21:15 26.15076 -80.33827 5012 ft 182 kts 268°
2026-05-03 21:16 26.15056 -80.35227 5011 ft 182 kts 268°
2026-05-03 21:16 26.15033 -80.36641 4831 ft 182 kts 268°
2026-05-03 21:16 26.15009 -80.38041 4582 ft 182 kts 268°
2026-05-03 21:16 26.14983 -80.39446 4333 ft 182 kts 268°
2026-05-03 21:17 26.14957 -80.40853 4098 ft 182 kts 268°
2026-05-03 21:17 26.14940 -80.41783 4037 ft 182 kts 269°
2026-05-03 21:17 26.14905 -80.43672 4015 ft 182 kts 268°
2026-05-03 21:17 26.14875 -80.45088 4014 ft 183 kts 268°
2026-05-03 21:18 26.14843 -80.46495 4018 ft 184 kts 268°
2026-05-03 21:18 26.14811 -80.47919 4016 ft 185 kts 268°
2026-05-03 21:18 26.14780 -80.49342 4016 ft 183 kts 268°
2026-05-03 21:18 26.14530 -80.50714 4014 ft 183 kts 241°
2026-05-03 21:19 26.13569 -80.51610 4017 ft 189 kts 202°
2026-05-03 21:19 26.12249 -80.51743 4020 ft 194 kts 181°
2026-05-03 21:19 26.10904 -80.51626 4015 ft 194 kts 178°
2026-05-03 21:19 26.09562 -80.51478 4021 ft 195 kts 176°
2026-05-03 21:20 26.08337 -80.50865 4016 ft 200 kts 139°
2026-05-03 21:20 26.07490 -80.49635 3830 ft 201 kts 124°
2026-05-03 21:20 26.06859 -80.48258 3578 ft 201 kts 107°
2026-05-03 21:20 26.06725 -80.46714 3341 ft 202 kts 90°
2026-05-03 21:21 26.06723 -80.45156 3108 ft 201 kts 90°
2026-05-03 21:21 26.06719 -80.43619 3012 ft 200 kts 90°
2026-05-03 21:21 26.06714 -80.42075 3009 ft 200 kts 90°
2026-05-03 21:21 26.06710 -80.41149 3012 ft 199 kts 90°
2026-05-03 21:22 26.06704 -80.39612 3013 ft 200 kts 90°
2026-05-03 21:22 26.06698 -80.38070 3009 ft 200 kts 90°
2026-05-03 21:22 26.06691 -80.36517 3013 ft 200 kts 90°
2026-05-03 21:22 26.06685 -80.34971 3011 ft 199 kts 90°
2026-05-03 21:23 26.06678 -80.33451 2965 ft 198 kts 90°
2026-05-03 21:23 26.06671 -80.31897 2755 ft 196 kts 90°
2026-05-03 21:23 26.06664 -80.30426 2541 ft 192 kts 89°
2026-05-03 21:23 26.06657 -80.28939 2290 ft 191 kts 90°
2026-05-03 21:24 26.06650 -80.27517 2046 ft 178 kts 89°
2026-05-03 21:24 26.06643 -80.26176 1837 ft 170 kts 89°
2026-05-03 21:24 26.06637 -80.24976 1619 ft 168 kts 89°
2026-05-03 21:24 26.06630 -80.23688 1391 ft 166 kts 89°
2026-05-03 21:25 26.06624 -80.22411 1182 ft 165 kts 88°
2026-05-03 21:25 26.06617 -80.21097 957 ft 165 kts 89°
2026-05-03 21:25 26.06610 -80.19878 749 ft 152 kts 88°
2026-05-03 21:25 26.06604 -80.18731 562 ft 148 kts 88°
2026-05-03 21:26 26.06598 -80.17595 362 ft 146 kts 87°
2026-05-03 21:26 26.06591 -80.16476 183 ft 144 kts 85°
2026-05-03 21:26 26.06584 -80.15377 30 ft 139 kts 88°
2026-05-03 21:26 26.06584 -80.14478 44 ft 86 kts 90°
2026-05-03 21:27 26.06618 -80.14237 54 ft 11 kts 30°
2026-05-03 21:27 26.06661 -80.14245 51 ft 5 kts 316°
2026-05-03 21:27 26.06675 -80.14277 49 ft 8 kts 283°
2026-05-03 21:27 26.06677 -80.14363 49 ft 9 kts 270°
2026-05-03 21:28 26.06677 -80.14451 45 ft 14 kts 269°
2026-05-03 21:28 26.06676 -80.14574 41 ft 18 kts 269°
2026-05-03 21:28 26.06676 -80.14743 27 ft 22 kts 271°
2026-05-03 21:28 26.06693 -80.14924 18 ft 17 kts 272°
2026-05-03 21:29 26.06694 -80.15047 19 ft 14 kts 270°
2026-05-03 21:29 26.06732 -80.15129 19 ft 14 kts 343°
2026-05-03 21:29 26.06844 -80.15130 16 ft 16 kts
2026-05-03 21:29 26.06905 -80.15106 16 ft 9 kts 60°
2026-05-03 21:30 26.06911 -80.15030 16 ft 11 kts 90°
2026-05-03 21:30 26.06911 -80.14958 16 ft 9 kts 90°
2026-05-03 21:30 26.06911 -80.14899 16 ft 3 kts 90°
2026-05-03 21:35 26.06911 -80.14898 16 ft 1 kts 90°
2026-05-03 21:37 26.06911 -80.14897 16 ft 0 kts 90°
2026-05-03 21:37 26.06911 -80.14891 16 ft 0 kts 90°
2026-05-03 21:40 26.06911 -80.14890 16 ft 1 kts 90°
2026-05-03 21:41 26.06911 -80.14885 16 ft 0 kts 91°
2026-05-03 21:41 26.06911 -80.14884 16 ft 0 kts 91°
2026-05-03 21:41 26.06911 -80.14880 16 ft 1 kts 91°
2026-05-03 21:41 26.06912 -80.14827 16 ft 14 kts 82°
2026-05-03 21:42 26.06952 -80.14747 16 ft 10 kts 75°
2026-05-03 21:42 26.06915 -80.14682 16 ft 11 kts 140°
2026-05-03 21:42 26.06855 -80.14626 17 ft 11 kts 134°
2026-05-03 21:42 26.06845 -80.14615 16 ft 1 kts 134°
2026-05-03 21:43 26.06837 -80.14603 16 ft 2 kts 121°
2026-05-03 21:43 26.06839 -80.14585 16 ft 3 kts 65°
2026-05-03 21:43 26.06854 -80.14569 16 ft 3 kts 32°
2026-05-03 21:43 26.06877 -80.14561 16 ft 5 kts 13°
2026-05-03 21:44 26.06882 -80.14560 16 ft 0 kts 10°
2026-05-03 21:44 26.06869 -80.14563 16 ft 3 kts 27°
2026-05-03 21:44 26.06863 -80.14566 16 ft 5 kts 41°
2026-05-03 21:44 26.06876 -80.14557 16 ft 2 kts 30°
2026-05-03 21:45 26.06880 -80.14556 16 ft 0 kts 24°